* Astronomy

Members Login
Username 
 
Password 
    Remember Me  
Post Info TOPIC: Asteroid 2011 WL46


L

Posts: 131433
Date:
Asteroid 2011 WL46
Permalink  
 


Orbital elements:
2011 WL46                                                Earth MOID = 0.2007 AU
Epoch 2011 Aug. 27.0 TT = JDT 2455800.5                 MPC
M 331.74265              (2000.0)            P               Q
n   0.30080835     Peri.  183.94503     +0.05348050     -0.92452008
a   2.2060201      Node   263.28330     +0.92625363     +0.18712182
e   0.4626098      Incl.   22.33185     +0.37308719     -0.33203622
P   3.28           H   20.7           G   0.15           U   8

MPEC 2011 - W68



__________________
Page 1 of 1  sorted by
 
Quick Reply

Please log in to post quick replies.



Create your own FREE Forum
Report Abuse
Powered by ActiveBoard